Погода в Антипаюте

Погода в Антипаюте : погода сейчас, прогноз погоды и архив. Всё, что Вы хотите узнать о погоде в Антипаюте!

Хотите узнать прогноз погоды в Антипаюте? Тогда Вам сюда: Погода в Антипаюте

Поиск расширенной информации на нашем сайте:

Другие новости

Новости СМИ2

Главная страница сайта

Новости сайта

03.07.2017

Напоминаем, что на нашем специализированном сайте Метеоцентр.Азия вы можете получить высокодетализированные автоматические прогнозы погоды по пунктам России, СНГ и мира в авиационном формате (включающие направление и скорость ветра, видимость, явления погоды, количество и форму облачности, нижнюю и верхнюю границу облачности).

Рекомендуем: Подробности мини сыроварня у нас на сайте.

Погода в Антипаюте - сегодня

Время (UTC), дата Ветер
(°,м/с) 
Видим.   Явления Облачность Т
(°С)
Тd
(°С)
f(%) Тe
(°С)
Pmin
(гПа)
dP
(гПа)
Po
(мм)
O2
(г/м3)
Тmin Tmax R s Состояние
почвы
06 22.09.17 310 (СЗ) 20000 м    9/0 средняя 
[Ac trans]
+1.7 -2.7 73 -1  1024.8  0.3  768  308           
09 22.09.17 330 (СЗ) 20000 м    9/0 средняя 
[Ac trans]
+2.4 -3.3 66 1025.1  0.3  769  307           
12 22.09.17 320 (СЗ) 20000 м    6/0 средняя 
[Ac trans]
+1.8 -2.1 75 1026.1  769  308           
15 22.09.17 310 (СЗ) 20000 м    8/0 средняя 
[Ac trans]
-0.5 -2.1 89 -2  1027.3  1.2  770  311    +2.6       
18 22.09.17 320 (СЗ) 20000 м    10/0 средняя 
[Ac und]
-0.3 -2 88 -2  1028.1  0.8  771  311           
21 22.09.17 290 (З) 20000 м    3/0 средняя 
[Ac trans]
-1.5 -2.6 92 -2  1028.6  0.5  771  313           
00 23.09.17 300 (СЗ) 20000 м    3/0 средняя 
[Ac trans]
-4.1 -4.8 95 -4  1029  0.3  771  316           
03 23.09.17 300 (СЗ) 20000 м    4/0 средняя, верхняя 
[Ac trans|Ci fib]
+0.1 -2.1 85 +1  1029  771  311  -4.3        влажная 
06 23.09.17 210 (ЮЗ) 20000 м    8/0 средняя 
[Ac trans]
+3.5 -2.8 63 +2  1028.6  -0.4  771  307           
09 23.09.17 230 (ЮЗ) 20000 м    9/0 средняя 
[Ac trans]
+3.9 +0.5 78 +2  1028.1  -0.5  771  306           
12 23.09.17 240 (ЮЗ) 20000 м    9/0 средняя 
[Ac trans]
+3.5 +1.3 85 +1  1027.8  -0.3  771  306           
15 23.09.17 270 (З) 20000 м    9/0 средняя 
[Ac trans]
+2.9 +2.1 94 +2  1027.4  -0.4  770  307    +4.2       
18 23.09.17 060 (СВ) 20000 м    9/0 средняя 
[Ac trans]
+2.8 +2.7 99 +2  1027  -0.4  770  307           
21 23.09.17 260 (З) 20000 м  {дождь}  10/0 средняя 
[Ac und]
+3.4 +3.3 99 +2  1026.5  -0.5  770  306           
00 24.09.17 270 (З) 20000 м    10/0 средняя 
[Ac und]
+2.9 +2.9 100 +2  1026.1  -0.4  769  306           
03 24.09.17 280 (З) 20000 м    10/0 средняя 
[Ac und]
+2.9 +2.6 98 +2  1025.7  -0.4  769  306  +1.5    0.4    влажная 
06 24.09.17 260 (З) 20000 м    9/0 средняя 
[Ac trans]
+4.7 +3.6 93 +3  1025  -0.7  768  304           
09 24.09.17 230 (ЮЗ) 20000 м    9/0 средняя 
[Ac trans]
+4.8 +3.5 91 +3  1023.8  -1.2  768  303           
12 24.09.17 270 (З) 20000 м    8/0 средняя 
[Ac trans]
+3.9 +2.4 90 +3  1022.8  767  304           
15 24.09.17 240 (ЮЗ) 20000 м    9/0 средняя 
[Ac trans]
+4.2 +3.6 96 +2  1021.4  -1.4  766  303    +5.8       
18 24.09.17 260 (З) 20000 м  {дождь}  10/0 средняя 
[Ac und]
+4.1 +3.8 98 +2  1020.4  -1.1  765  303           
21 24.09.17 260 (З) 20000 м    10/0 средняя 
[Ac und]
+3.8 +3.4 97 +2  1019.4  -0.9  764  303           
00 25.09.17 250 (З) 20000 м  в посл. час дождь  10/0 средняя 
[Ac und]
+3.8 +3.8 100 +3  1018.8  -0.6  764  303           
03 25.09.17 270 (З) 20000 м    10/10 210 м 
[St]
+4.5 +4.5 100 +4  1018.5  -0.3  764  302  +3.4    0.4    влажная 
06 25.09.17 250 (З) 4000 м  слаб. морось  10/10 210 м 
[St]
+4.9 +4.9 100 +4  1018.8  0.3  764  302           
Время (UTC), дата Ветер
(°,м/с) 
Видим.   Явления Облачность Т
(°С)
Тd
(°С)
f(%) Тe
(°С)
Pmin
(гПа)
dP
(гПа)
Po
(мм)
O2
(г/м3)
Тmin Tmax R s Состояние
почвы

Для получения пояснительной информации подведите курсор к названию столбца.

ПОГОДА в Антипаюте - архив

Всё, что Вы хотите узнать о погоде в Антипаюте - удобно и подробно!

Выберите нужную дату (начиная с 1 января 2015* года) и нажмите кнопку "Найти".
Будут отображены архивные сводки погоды по пункту Антипаюта, начиная с указанной даты.


Отображать данные в формате CSV (для использования в таблицах Excel)


Внимание! Наш архив погоды предназначен исключительно для личного некоммерческого использования в познавательных целях. Если Вам необходимы официальные справки о состоянии погоды (для производственных, юридических, коммерческих и т.п. целей), обращайтесь в органы Росгидромета.

*Примечание: данная дата относится к архиву по метеостанциям СССР (Россия, СНГ, Балтия).
Архив по метеостанциям Зарубежной Европы и Азии (кроме Китая) хранится 10 дней, по другим регионам земного шара (Китай, Африка, Америка, Австралия, Океания) - 1 день.

Антипаюта - район местоположения метеостанции


Название, широта, долгота, высота метеостанции:
Антипаюта 69.2°ш. 77°д. 4 м над ур. моря [Российская Федерация]

Дополнительная информация

В oтличие oт бoльшинства пoгoдных сайтoв мы публикуем пoдрoбную метеoинфoрмацию в детальнoм прoфессиoнальнoм фoрмате.

Характеристики температуры и влажнoсти вoздуха измеряются на высoте 2 м в тени вдали oт зданий и деревьев.
Скoрoсть ветра измеряется на высoте 10 м (на урoвне рoста челoвека скoрoсть ветра ниже в 1.5-2 раза). Если метеoстанция нахoдится в гoрoде или в лесу, тo скoрoсть ветра занижена на 2-4 м/с пo сравнению с oткрытым местoм. Скoрoсть ветра над акватoриями крупных рек и oзёр, а также на вершинах хoлмoв на 2-5 м/с выше, чем в oбычных услoвиях.
Атмoсфернoе давление в разных тoчках местнoсти мoжет значительнo oтличаться oт давления на метеoстанции, в зависимoсти oт услoвий рельефа (при пoдъёме на 10 м давление пoнижается примернo на 1 мм рт.ст.).